ENMS Weather Reports


time (UTC)temp
C
wind
direction
speed
KPH
gust
KPH
rain 1hr
cm
rain 24hr
cm
rain mn
cm
humidity
%
barometer
mb
20260508100307 8 150 8.0 0.0 0.00 0.00 0.00 42 1022.0
20260508093307 8 110 4.8 0.0 0.00 0.00 0.00 42 1022.0
20260508090307 7 110 9.7 0.0 0.00 0.00 0.00 49 1022.0
20260508083307 6 170 8.0 0.0 0.00 0.00 0.00 56 1022.0
20260508073307 5 200 11.3 0.0 0.00 0.00 0.00 60 1023.0
20260508070306 5 180 8.0 0.0 0.00 0.00 0.00 75 1023.0
20260508063306 2 100 4.8 0.0 0.00 0.00 0.00 86 1023.0
20260508060306 1 0 3.2 0.0 0.00 0.00 0.00 93 1023.0
20260508053307 0 0 3.2 0.0 0.00 0.00 0.00 93 1023.0
20260508050306 0 150 4.8 0.0 0.00 0.00 0.00 92 1023.0
20260508043306 0 130 3.2 0.0 0.00 0.00 0.00 92 1022.0
20260508040307 -1 0 3.2 0.0 0.00 0.00 0.00 92 1023.0
20260508030306 -1 180 8.0 0.0 0.00 0.00 0.00 92 1022.0
20260508023307 -1 0 3.2 0.0 0.00 0.00 0.00 92 1022.0
20260508020307 0 170 4.8 0.0 0.00 0.00 0.00 92 1022.0
20260508013307 0 210 4.8 0.0 0.00 0.00 0.00 92 1022.0
20260508010306 0 170 4.8 0.0 0.00 0.00 0.00 92 1022.0
20260508003306 0 0 1.6 0.0 0.00 0.00 0.00 92 1022.0
20260508000306 0 200 8.0 0.0 0.00 0.00 0.00 10 1021.0
20260507233306 0 0 3.2 0.0 0.00 0.00 0.00 92 1021.0
20260507230306 0 0 3.2 0.0 0.00 0.00 0.00 92 1021.0
20260507223306 0 0 1.6 0.0 0.00 0.00 0.00 93 1020.0
20260507220306 0 190 4.8 0.0 0.00 0.00 0.00 93 1020.0
20260507213306 1 160 4.8 0.0 0.00 0.00 0.00 86 1020.0
20260507210307 2 200 9.7 0.0 0.00 0.00 0.00 86 1020.0
20260507203307 1 180 9.7 0.0 0.00 0.00 0.00 93 1019.0
20260507200305 2 180 8.0 0.0 0.00 0.00 0.00 86 1019.0
20260507193307 2 150 4.8 0.0 0.00 0.00 0.00 86 1019.0
20260507190307 3 190 12.9 0.0 0.00 0.00 0.00 80 1018.0
20260507183307 5 220 11.3 0.0 0.00 0.00 0.00 75 1018.0
20260507180310 5 250 11.3 0.0 0.00 0.00 0.00 70 1018.0
20260507173308 6 250 9.7 0.0 0.00 0.00 0.00 56 1017.0
20260507170308 6 230 9.7 0.0 0.00 0.00 0.00 56 1017.0
20260507163307 7 240 9.7 0.0 0.00 0.00 0.00 49 1017.0
20260507160308 6 190 12.9 0.0 0.00 0.00 0.00 52 1017.0
20260507153308 7 0 9.7 0.0 0.00 0.00 0.00 52 1017.0
20260507150308 5 260 9.7 0.0 0.00 0.00 0.00 65 1017.0
20260507143307 6 0 19.3 0.0 0.00 0.00 0.00 56 1017.0
20260507140308 5 220 11.3 0.0 0.00 0.00 0.00 60 1017.0
20260507133307 5 190 16.1 0.0 0.00 0.00 0.00 60 1017.0
20260507130307 5 210 12.9 0.0 0.00 0.00 0.00 60 1016.0
20260507123308 5 260 11.3 0.0 0.00 0.00 0.00 65 1016.0
20260507120307 5 230 16.1 0.0 0.00 0.00 0.00 56 1016.0
20260507113308 6 190 11.3 0.0 0.00 0.00 0.00 56 1016.0
20260507110307 5 190 12.9 0.0 0.00 0.00 0.00 56 1015.0
20260507103307 5 220 14.5 0.0 0.00 0.00 0.00 56 1015.0